GEESAT-6 08

Last updated on Mon Oct 20 2025 00:02:06 GMT+0000 (Coordinated Universal Time)

1 65720U 25214J 25292.25529233 .00005074 00000+0 59098-3 0 9994 2 65720 49.9907 345.9747 0015631 21.4950 338.6643 14.86575509 3721
UTC large
Height (km)
Speed (km/s)
/
Latitude / Longitude
Inclination (degrees)
Orbital Period (minutes)
Azimuth
Elevation
Range (km)
Doppler Factor

Next 0 passes for location: London (51.5072 / 0.1276)

Sorry there are no passes over London.